Flag for Spain Weather past 2 weeks in Sevilla, Spain

Now
48 °F

Fog.


Feels Like: 48 °F
Forecast: 42 / 63 °F
Wind: No wind

Location: Sevilla / San Pablo

Current Time: Dec 18, 2014 at 11:08:55 PM

Latest Report: Dec 18, 2014 at 10:30 PM


Visibility: 2 mi

Pressure: 30.36 "Hg

Humidity: 100%

Dew point: 48 °F

Location of SevillaLocation

Historic Weather in Sevilla — Graph

°F

Sevilla temperature yesterday

Maximum temperature yesterday: 55 °F (at 4:30 PM)
Minimum temperature yesterday: 48 °F (at 6:00 AM)
Average temperature yesterday: 50 °F

Past Weeks' High & Low Weather Summary

 TemperatureHumidityPressure
High63 °F (Dec 11, 4:00 PM)100% (Dec 4, 4:00 AM)30.51 "Hg (Dec 4, 4:00 AM)
Low37 °F (Dec 9, 6:30 AM)31% (Dec 10, 4:00 PM)29.80 "Hg (Dec 3, 10:00 PM)
Average50 °F84%30.21 "Hg
* Reported Dec 3 10:00 PM — Dec 18 10:00 PM, Sevilla, Weather by CustomWeather, © 2014

Note: Actual official high and low records may vary slightly from our data, if they occured in-between our weather recording intervals... More about our weather records

Advertising

Sevilla weather history for previous 24 hours

 ConditionsComfort  
Time TempWeatherWind HumidityBarometerVisibility
10:00 PM
Dec 18
48 °FCool.2 mph94%30.36 "Hg2 mi
9:30 PM48 °FFog.1 mph100%30.36 "Hg3 mi
9:00 PM50 °FFog.No wind94%30.36 "Hg3 mi
8:30 PM50 °FClear.2 mph94%30.36 "Hg4 mi
8:00 PM52 °FClear.No wind100%30.33 "Hg4 mi
7:30 PM54 °FClear.1 mph94%30.33 "Hg4 mi
7:00 PM54 °FPassing clouds.3 mph94%30.33 "HgN/A
6:30 PM55 °FClear.2 mph88%30.33 "Hg10 mi
6:00 PM57 °FSunny.2 mph82%30.33 "Hg10 mi
5:30 PM59 °FSunny.2 mph77%30.30 "Hg10 mi
5:00 PM61 °FSunny.1 mph72%30.30 "Hg10 mi
4:30 PM61 °FSunny.2 mph72%30.30 "Hg10 mi
4:00 PM59 °FSunny.2 mph77%30.30 "Hg10 mi
3:30 PM59 °FSunny.2 mph77%30.30 "Hg10 mi
3:00 PM59 °FPassing clouds.3 mph77%30.30 "HgN/A
2:30 PM57 °FPassing clouds.5 mph82%30.33 "HgN/A
2:00 PM55 °FPassing clouds.6 mph88%30.33 "HgN/A
1:30 PM54 °FPassing clouds.6 mph94%30.33 "HgN/A
1:00 PM52 °FPassing clouds.6 mph100%30.36 "HgN/A
12:30 PM50 °FPartly sunny.6 mph100%30.36 "Hg6 mi
12:00 PM48 °FCool.6 mph100%30.39 "Hg2 mi
11:30 AM46 °FFog.3 mph100%30.39 "Hg1 mi
11:00 AM46 °FCool.5 mph100%30.39 "Hg1 mi
10:30 AM45 °FFog.6 mph100%30.39 "Hg1 mi
10:00 AM45 °FFog.6 mph100%30.39 "Hg1 mi
9:30 AM45 °FFog.7 mph100%30.36 "Hg0 mi
9:00 AM45 °FFog.5 mph100%30.36 "Hg0 mi
8:30 AM45 °FFog.6 mph100%30.36 "Hg0 mi
8:00 AM45 °FFog.3 mph100%30.33 "Hg0 mi
7:30 AM45 °FFog.5 mph100%30.33 "Hg0 mi
7:00 AM45 °FFog.3 mph100%30.33 "Hg0 mi
6:30 AM45 °FFog.1 mph100%30.33 "Hg0 mi
6:00 AM45 °FFog.2 mph100%30.33 "Hg0 mi
5:30 AM45 °FFog.3 mph100%30.33 "Hg0 mi
4:30 AM45 °FFog.2 mph100%30.33 "Hg0 mi
4:00 AM45 °FFog.7 mph100%30.33 "Hg0 mi
3:30 AM45 °FFog.6 mph100%30.33 "Hg0 mi
1:00 AM46 °FFog.2 mph100%30.33 "Hg2 mi
12:30 AM46 °FFog.No wind93%30.33 "Hg2 mi
12:00 AM46 °FFog.1 mph93%30.33 "Hg2 mi
11:30 PM
Dec 17
48 °FFog.1 mph94%30.33 "Hg2 mi
11:00 PM48 °FFog.No wind94%30.33 "Hg3 mi
Weather by CustomWeather, © 2014

See weather overviewHow to use our weather pages